Location: Newark
(13.6797°N, 8.5297°E)
Time: 18:04:59
(UTC+00:00)

A-11 Canister half - Pass Details

Date: 18 January 2020
Orbit: 1517 x 1683 km, 47.2° (Epoch: 22 February)

Event Time Altitude Azimuth Distance (km) Brightness Sun altitude
Rises 01:18:01 0° 272° (W) 4,715 - -64.7°
Reaches altitude 10° 01:22:57 10° 294° (WNW) 3,704 - -63.6°
Maximum altitude 01:27:55 15° 327° (NNW) 3,276 - -62.4°
Drops below altitude 10° 01:32:54 10° 1° (N) 3,673 - -61.3°
Sets 01:37:48 0° 23° (NNE) 4,653 - -60.1°
